Wind_Speed
34 37 36 33 28 23 20 17 13 10 7 5 4 4 5 6 7 7 6 6 8 10
34 36 34 28 24 21 19 16 12 8 6 4 3 4 5 7 7 7 8 10 11 12
32 33 30 26 23 21 18 15 11 8 5 3 3 4 6 7 7 9 10 10 12 12
33 31 28 25 22 19 16 13 10 7 4 3 3 5 7 7 8 10 12 12 11 14
33 31 28 24 21 17 15 12 8 6 3 3 4 6 7 8 10 11 12 13 14 15
32 30 27 24 20 16 14 11 8 5 3 4 6 7 8 9 11 11 12 14 15 16
30 28 25 22 19 15 12 9 6 4 4 5 8 9 10 10 12 12 15 16 18 17
28 25 23 20 17 14 11 8 5 3 4 7 10 10 10 11 13 15 16 19 19 17
27 24 21 19 16 13 10 6 3 4 7 9 11 11 10 12 13 15 14 17 17 20
25 22 19 17 14 11 7 4 4 6 9 10 12 10 12 13 13 14 16 19 20 20
23 21 18 15 12 9 5 3 5 7 9 11 12 12 13 14 14 15 17 21 21 20
21 20 17 13 10 6 4 4 6 8 10 13 13 14 14 15 15 16 18 20 19 18
19 17 14 11 8 5 4 5 7 9 10 11 14 15 15 16 15 17 20 18 18 18
16 15 12 9 6 4 4 6 8 10 12 13 14 16 15 15 17 19 20 21 21 24
Wind_Direction
175 172 168 166 161 154 149 146 142 142 129 106 76 40 16 5 356 346 340 331 318 309
174 169 163 160 157 152 148 144 143 141 129 104 61 17 360 351 343 341 335 327 321 310
167 163 159 158 154 151 147 145 143 139 127 99 41 3 349 344 339 334 330 326 318 314
157 158 157 155 152 150 146 144 142 137 120 73 18 355 347 340 334 327 323 324 324 321
155 154 153 151 150 149 146 140 136 125 99 42 9 354 341 331 326 325 327 332 331 326
151 152 149 149 148 147 142 135 125 109 67 24 357 344 334 325 324 321 327 332 332 325
152 150 147 146 145 143 135 127 113 86 38 1 347 337 331 328 323 319 325 329 329 323
149 147 144 142 140 134 126 114 98 61 11 351 341 336 329 327 324 322 321 323 323 319
147 144 141 138 133 127 118 108 85 24 356 346 340 336 330 329 323 320 316 315 314 315
146 140 137 134 131 124 117 99 46 4 350 344 340 340 333 329 320 317 315 316 314 312
144 137 136 133 128 122 105 66 17 359 345 341 346 340 332 327 319 318 317 315 315 308
145 138 134 129 124 115 87 27 1 351 348 345 341 339 333 329 322 317 316 315 313 312
139 134 132 127 122 97 44 6 353 354 349 346 339 342 335 330 321 322 319 315 315 313
132 130 127 122 104 68 23 4 353 346 350 349 349 341 333 333 329 321 318 321 320 321
Height
761 766 773 780 786 789 792 797 800 804 806 806 807 807 807 806 806 805 804 803 803 802
760 766 773 782 786 788 791 795 800 803 804 805 805 806 805 805 804 803 802 801 800 799
760 768 775 781 784 788 791 795 799 801 803 804 804 804 804 803 802 801 800 798 797 795
761 768 775 780 785 788 791 794 797 800 802 802 802 802 802 801 800 799 797 796 794 792
762 767 773 779 785 788 791 794 797 799 800 801 800 800 800 798 797 796 794 792 789 787
763 768 773 778 784 788 791 793 796 798 799 798 798 798 797 796 794 792 790 788 786 783
765 769 773 778 784 788 790 793 795 796 797 796 796 795 794 793 791 789 787 784 782 780
767 771 775 780 784 787 790 792 794 795 795 795 794 793 792 790 788 785 783 781 778 775
768 772 776 780 783 786 789 791 793 793 793 793 792 791 790 787 784 782 780 776 773 770
770 773 777 780 783 786 789 791 792 792 791 791 789 788 786 784 781 778 775 772 768 765
771 774 777 780 783 786 788 790 790 790 790 789 786 784 783 780 777 774 771 768 763 759
771 774 778 780 783 786 788 789 789 789 788 785 784 782 779 777 773 770 767 762 758 755
772 775 777 781 784 786 787 788 788 787 786 784 781 778 776 774 770 765 761 758 755 752
773 776 779 782 783 785 787 787 786 785 783 781 779 775 773 769 766 762 758 754 750 746